Flag for Italy Weather past 2 weeks in Trieste, Italy

Now
74 °F

Overcast.


Feels Like: 75 °F
Forecast: 62 / 73 °F
Wind: No wind

Location: Trieste

Current Time: Aug 20, 2014 at 8:46:04 PM

Latest Report: Aug 20, 2014 at 8:00 PM


Visibility: 13 mi

Pressure: 29.90 "Hg

Humidity: 76%

Dew point: 66 °F

Location of TriesteLocation

Historic Weather in Trieste — Graph

°F

Trieste temperature yesterday

Maximum temperature yesterday: 75 °F (at 1:00 PM)
Minimum temperature yesterday: 67 °F (at 12:00 AM)
Average temperature yesterday: 72 °F

Past Weeks' High & Low Weather Summary

 TemperatureHumidityPressure
High88 °F (Aug 12, 12:00 PM)97% (Aug 13, 10:00 PM)30.06 "Hg (Aug 13, 10:00 PM)
Low56 °F (Aug 17, 3:00 AM)22% (Aug 18, 9:00 AM)29.64 "Hg (Aug 13, 6:00 PM)
Average74 °F69%29.90 "Hg
* Reported Aug 5 7:00 PM — Aug 20 7:00 PM, Trieste, Weather by CustomWeather, © 2014

Note: Actual official high and low records may vary slightly from our data, if they occured in-between our weather recording intervals... More about our weather records

Advertising

Trieste weather history for previous 24 hours

 ConditionsComfort  
Time TempWeatherWind HumidityBarometerVisibility
7:00 PM
Aug 20
76 °FOvercast.No wind66%29.90 "Hg12 mi
6:00 PM77 °FPartly sunny.1 mph67%29.91 "Hg12 mi
5:00 PM78 °FScattered clouds.1 mph67%29.92 "Hg12 mi
4:00 PM79 °FScattered clouds.2 mph65%29.92 "Hg12 mi
3:00 PM76 °FOvercast.No wind63%29.93 "Hg12 mi
2:00 PM77 °FOvercast.1 mph68%29.93 "Hg12 mi
1:00 PM75 °FOvercast.1 mph70%29.93 "Hg12 mi
12:00 PM78 °FPartly sunny.3 mph67%29.93 "Hg12 mi
11:00 AM74 °FPartly sunny.2 mph70%29.93 "Hg12 mi
10:00 AM73 °FOvercast.2 mph70%29.92 "Hg12 mi
9:00 AM72 °FPartly sunny.3 mph73%29.92 "Hg12 mi
8:00 AM66 °FScattered clouds.3 mph84%29.92 "Hg12 mi
7:00 AM64 °FScattered clouds.3 mph95%29.91 "Hg6 mi
6:00 AM64 °FPassing clouds.3 mph90%29.92 "Hg6 mi
5:00 AM65 °FPassing clouds.6 mph86%29.93 "Hg6 mi
4:00 AM65 °FOvercast.2 mph93%29.93 "Hg6 mi
3:00 AM66 °FOvercast.5 mph94%29.93 "Hg6 mi
2:00 AM68 °FDrizzle. Overcast.3 mph92%29.93 "Hg6 mi
1:00 AM68 °FDrizzle. Overcast.5 mph94%29.92 "Hg6 mi
12:00 AM70 °FOvercast.3 mph84%29.92 "Hg6 mi
11:00 PM
Aug 19
71 °FPassing clouds.6 mph81%29.92 "Hg6 mi
10:00 PM71 °FPassing clouds.8 mph77%29.92 "Hg6 mi
9:00 PM71 °FPassing clouds.6 mph75%29.91 "Hg6 mi
8:00 PM72 °FPartly sunny.5 mph78%29.90 "Hg12 mi
Weather by CustomWeather, © 2014

See weather overviewHow to use our weather pages